Retour au catalogue

STARLINK-3643

ActifCommunicationsVLEO
NORAD 51992·PAYLOAD·🇺🇸 United States

Lancé Mar 9, 2022 depuis Cape Canaveral Space Force Station

Loading…

Prochains Passages (prochaines 24 heures)

TLE

FraisSource: CelesTrak SupGP

Époque: Sep 14, 2026, 22:01 UTC

1 51992C 22025AN  26257.91784722  .00031563  00000+0  93259-3 0  2574
2 51992  53.1573 235.7369 0001369  92.5443 246.1793 15.34372449    18

Suivez STARLINK-3643 en temps réel avec AllMySat

Download on the App Store